Location: Gwatt
(46.7204°N, 7.6223°E)
Time: 07:19:51
(UTC+00:00)

S-56A Canister/Altair - Pass Details

Date: 28 January 2021
Orbit: 632 x 2501 km, 38.9° (Epoch: 08 March)

Event Time Altitude Azimuth Distance (km) Brightness Sun altitude
Rises 00:52:53 0° 231° (SW) 3,362 - -58.0°
Reaches altitude 10° 00:55:59 10° 218° (SW) 2,236 - -57.7°
Maximum altitude 00:59:53 23° 165° (SSE) 1,379 - -57.3°
Drops below altitude 10° 01:03:26 10° 112° (ESE) 2,007 - -57.0°
Sets 01:06:03 0° 97° (E) 2,932 - -56.7°
